When you browse on this site, cookies collect data to enhance your experience and personalize the content and advertising you see.
Visit our Privacy Policy to learn more. By continuing to use the site, you agree to this use of cookies and data.
  • En España
  • Lista de países
  • Para 7 días
  • Temperatura del agua
  • El tiempo en el mapa
  • Informadores
  • user-avatar
    Iniciar sesión

    Tiempo cada hora Narón

    Hoy, 20 Febrero, Jueves

    Tiempo Temperatura Precipitaciones Viento Presión Humedad
    00:00 +4°C° 0 mm 3 mps 765 mmHg 92%
    01:00 +4°C° 0 mm 4 mps 764 mmHg 92%
    02:00 +4°C° 0 mm 4 mps 764 mmHg 92%
    03:00 +3°C° 0 mm 5 mps 764 mmHg 93%
    04:00 +3°C° 0 mm 5 mps 764 mmHg 93%
    05:00 +3°C° 0 mm 5 mps 764 mmHg 93%
    06:00 +5°C° 0 mm 5 mps 764 mmHg 90%
    07:00 +6°C° 0 mm 5 mps 764 mmHg 87%
    08:00 +7°C° 0 mm 6 mps 764 mmHg 84%
    09:00 +9°C° 0 mm 5 mps 764 mmHg 78%
    10:00 +12°C° 0 mm 4 mps 765 mmHg 72%
    11:00 +13°C° 0 mm 4 mps 765 mmHg 66%
    12:00 +13°C° 0 mm 3 mps 765 mmHg 68%
    13:00 +14°C° 0 mm 3 mps 765 mmHg 70%
    14:00 +15°C° 0 mm 2 mps 765 mmHg 71%
    15:00 +13°C° 0.1 mm 3 mps 765 mmHg 78%
    16:00 +12°C° 0.1 mm 4 mps 766 mmHg 84%
    17:00 +10°C° 0.1 mm 5 mps 767 mmHg 90%
    18:00 +10°C° 0 mm 5 mps 767 mmHg 92%
    19:00 +9°C° 0 mm 5 mps 768 mmHg 93%
    20:00 +9°C° 0 mm 5 mps 769 mmHg 94%
    21:00 +9°C° 0 mm 5 mps 769 mmHg 94%
    22:00 +8°C° 0 mm 5 mps 770 mmHg 94%
    23:00 +8°C° 0 mm 6 mps 770 mmHg 94%

    Mañana, 21 Febrero, Viernes

    Tiempo Temperatura Precipitaciones Viento Presión Humedad
    00:00 +8°C° 0 mm 5 mps 770 mmHg 95%
    01:00 +7°C° 0 mm 5 mps 769 mmHg 96%
    02:00 +7°C° 0 mm 5 mps 769 mmHg 97%
    03:00 +7°C° 0 mm 5 mps 769 mmHg 96%
    04:00 +8°C° 0 mm 5 mps 769 mmHg 94%
    05:00 +8°C° 0 mm 5 mps 769 mmHg 93%
    12:00 +18°C° 0 mm 4 mps 768 mmHg 58%
    13:00 +19°C° 0 mm 4 mps 768 mmHg 54%
    14:00 +20°C° 0 mm 4 mps 768 mmHg 50%
    15:00 +18°C° 0 mm 4 mps 768 mmHg 63%
    16:00 +14°C° 0 mm 4 mps 768 mmHg 75%
    17:00 +12°C° 0 mm 4 mps 768 mmHg 88%
    18:00 +11°C° 0 mm 3 mps 768 mmHg 89%
    19:00 +11°C° 0 mm 3 mps 769 mmHg 91%
    20:00 +10°C° 0 mm 3 mps 769 mmHg 92%
    21:00 +10°C° 0 mm 2 mps 769 mmHg 91%
    22:00 +9°C° 0 mm 2 mps 769 mmHg 90%
    23:00 +10°C° 0 mm 1 mps 769 mmHg 89%

    Pasado mañana, 22 Febrero, Sábado

    Tiempo Temperatura Precipitaciones Viento Presión Humedad
    00:00 +9°C° 0 mm 2 mps 769 mmHg 88%
    01:00 +9°C° 0 mm 2 mps 769 mmHg 86%
    02:00 +8°C° 0 mm 2 mps 769 mmHg 85%
    03:00 +8°C° 0 mm 2 mps 769 mmHg 84%
    04:00 +9°C° 0 mm 1 mps 769 mmHg 82%
    05:00 +9°C° 0 mm 1 mps 769 mmHg 81%
    06:00 +10°C° 0 mm 1 mps 770 mmHg 78%
    07:00 +11°C° 0 mm 1 mps 770 mmHg 75%
    08:00 +12°C° 0 mm 1 mps 770 mmHg 71%
    09:00 +15°C° 0 mm 1 mps 770 mmHg 63%
    10:00 +18°C° 0 mm 1 mps 770 mmHg 55%
    11:00 +21°C° 0 mm 1 mps 770 mmHg 47%
    12:00 +20°C° 0 mm 1 mps 770 mmHg 52%
    13:00 +19°C° 0 mm 2 mps 770 mmHg 56%
    14:00 +19°C° 0 mm 3 mps 770 mmHg 61%
    15:00 +16°C° 0 mm 3 mps 770 mmHg 73%
    16:00 +14°C° 0 mm 2 mps 770 mmHg 85%
    17:00 +12°C° 0 mm 2 mps 770 mmHg 97%
    18:00 +12°C° 0 mm 2 mps 770 mmHg 97%
    19:00 +10°C° 0 mm 2 mps 770 mmHg 97%
    20:00 +10°C° 0 mm 2 mps 771 mmHg 97%
    21:00 +9°C° 0 mm 2 mps 771 mmHg 95%
    22:00 +10°C° 0 mm 1 mps 771 mmHg 92%
    23:00 +10°C° 0 mm 1 mps 771 mmHg 90%

    23 Febrero, Domingo

    Tiempo Temperatura Precipitaciones Viento Presión Humedad
    00:00 +10°C° 0 mm 1 mps 771 mmHg 88%
    01:00 +9°C° 0 mm 1 mps 770 mmHg 87%
    02:00 +9°C° 0 mm 1 mps 770 mmHg 85%
    03:00 +9°C° 0 mm 1 mps 770 mmHg 86%
    04:00 +8°C° 0 mm 1 mps 770 mmHg 87%
    05:00 +8°C° 0 mm 1 mps 770 mmHg 88%
    06:00 +9°C° 0 mm 1 mps 770 mmHg 83%
    07:00 +11°C° 0 mm 1 mps 771 mmHg 79%
    08:00 +11°C° 0 mm 0 mps 771 mmHg 75%
    09:00 +14°C° 0 mm 0 mps 771 mmHg 65%
    10:00 +18°C° 0 mm 1 mps 771 mmHg 54%
    11:00 +21°C° 0 mm 1 mps 771 mmHg 44%
    12:00 +20°C° 0 mm 1 mps 770 mmHg 46%
    13:00 +19°C° 0 mm 2 mps 770 mmHg 49%
    14:00 +19°C° 0 mm 3 mps 770 mmHg 51%
    15:00 +17°C° 0 mm 3 mps 770 mmHg 64%
    16:00 +15°C° 0 mm 2 mps 770 mmHg 77%
    17:00 +12°C° 0 mm 2 mps 770 mmHg 90%
    18:00 +10°C° 0 mm 2 mps 770 mmHg 88%
    19:00 +10°C° 0 mm 2 mps 770 mmHg 86%
    20:00 +9°C° 0 mm 2 mps 771 mmHg 85%
    21:00 +8°C° 0 mm 3 mps 771 mmHg 80%
    22:00 +8°C° 0 mm 3 mps 770 mmHg 76%
    23:00 +8°C° 0 mm 3 mps 770 mmHg 71%

    24 Febrero, Lunes

    Tiempo Temperatura Precipitaciones Viento Presión Humedad
    00:00 +8°C° 0 mm 2 mps 770 mmHg 70%
    01:00 +7°C° 0 mm 2 mps 770 mmHg 70%
    02:00 +7°C° 0 mm 2 mps 769 mmHg 69%
    03:00 +7°C° 0 mm 2 mps 769 mmHg 73%
    04:00 +7°C° 0 mm 2 mps 769 mmHg 76%
    05:00 +9°C° 0 mm 1 mps 769 mmHg 80%
    06:00 +10°C° 0 mm 1 mps 768 mmHg 78%
    07:00 +11°C° 0 mm 1 mps 768 mmHg 76%
    08:00 +13°C° 0 mm 1 mps 768 mmHg 74%
    09:00 +15°C° 0 mm 1 mps 768 mmHg 64%
    10:00 +19°C° 0 mm 1 mps 768 mmHg 54%
    11:00 +21°C° 0 mm 1 mps 768 mmHg 44%
    12:00 +19°C° 0 mm 0 mps 767 mmHg 46%
    13:00 +19°C° 0 mm 0 mps 767 mmHg 48%
    14:00 +19°C° 0 mm 0 mps 766 mmHg 49%
    15:00 +18°C° 0 mm 1 mps 766 mmHg 59%
    16:00 +15°C° 0 mm 1 mps 766 mmHg 68%
    17:00 +13°C° 0 mm 1 mps 766 mmHg 77%
    18:00 +12°C° 0 mm 1 mps 766 mmHg 75%
    19:00 +11°C° 0 mm 1 mps 766 mmHg 73%
    20:00 +9°C° 0 mm 2 mps 767 mmHg 70%
    21:00 +9°C° 0 mm 2 mps 766 mmHg 71%
    22:00 +9°C° 0 mm 3 mps 766 mmHg 71%
    23:00 +9°C° 0 mm 3 mps 766 mmHg 72%

    25 Febrero, Martes

    Tiempo Temperatura Precipitaciones Viento Presión Humedad
    00:00 +8°C° 0 mm 3 mps 766 mmHg 72%
    01:00 +7°C° 0 mm 4 mps 765 mmHg 73%
    02:00 +7°C° 0 mm 4 mps 765 mmHg 74%
    03:00 +7°C° 0 mm 4 mps 765 mmHg 75%
    04:00 +7°C° 0 mm 4 mps 765 mmHg 76%
    05:00 +8°C° 0 mm 5 mps 765 mmHg 78%
    06:00 +8°C° 0 mm 5 mps 764 mmHg 75%
    07:00 +9°C° 0 mm 5 mps 764 mmHg 72%
    08:00 +10°C° 0 mm 5 mps 764 mmHg 70%
    09:00 +12°C° 0 mm 5 mps 764 mmHg 67%
    10:00 +14°C° 0 mm 6 mps 764 mmHg 64%
    11:00 +15°C° 0 mm 6 mps 764 mmHg 61%
    12:00 +15°C° 0.1 mm 6 mps 763 mmHg 66%
    13:00 +14°C° 0.1 mm 6 mps 763 mmHg 71%
    14:00 +14°C° 0.1 mm 6 mps 763 mmHg 76%
    15:00 +13°C° 0.4 mm 6 mps 763 mmHg 82%
    16:00 +11°C° 0.4 mm 6 mps 763 mmHg 88%
    17:00 +11°C° 0.4 mm 6 mps 763 mmHg 94%
    18:00 +11°C° 0.5 mm 6 mps 763 mmHg 95%
    19:00 +10°C° 0.5 mm 5 mps 763 mmHg 96%
    20:00 +10°C° 0.5 mm 5 mps 763 mmHg 96%
    21:00 +10°C° 0.2 mm 5 mps 763 mmHg 97%
    22:00 +11°C° 0.2 mm 4 mps 763 mmHg 97%
    23:00 +12°C° 0.2 mm 4 mps 764 mmHg 98%
    Mostrar más